^^
Daily Summary for August 25, 2021 Units:  Metric    English   Both
Daily Weekly Monthly Yearly Custom
  High: Low: Average:
Temperature: 32.2 °C 13.9 °C 22.5 °C
Dew Point: 10 °C 4.4 °C 7.1 °C
Humidity: 66% 21% 40%
Wind Speed: 32.2km/h 0km/h 6km/h
Wind Gust: 32.2km/h - -
Wind- - SW
Pressure: 1019.2 hPa 1015.8 hPa -
Precipitation: 0 mm    
Historical Graphs
 
 
Tabular Data for August 25, 2021
Time Temperature Dew Point Pressure Wind Wind Speed Wind Gust Humidity Rainfall Rate (Hourly) solar
00:04 18.3 °C 6.1 °C 1015.8 hPa Calm     46% 0 mm 0.00 W/m2
00:09 17.8 °C 6.1 °C 1015.8 hPa Calm     46% 0 mm 0.00 W/m2
00:14 17.8 °C 6.7 °C 1015.8 hPa Calm     47% 0 mm 0.00 W/m2
00:19 17.8 °C 6.7 °C 1015.8 hPa Calm     47% 0 mm 0.00 W/m2
00:24 17.8 °C 6.1 °C 1015.8 hPa Calm     47% 0 mm 0.00 W/m2
00:29 17.8 °C 6.1 °C 1015.8 hPa Calm     47% 0 mm 0.00 W/m2
00:34 17.8 °C 6.1 °C 1015.8 hPa Calm     47% 0 mm 0.00 W/m2
00:39 17.8 °C 6.1 °C 1015.8 hPa Calm     47% 0 mm 0.00 W/m2
00:44 17.8 °C 6.7 °C 1015.8 hPa Calm     48% 0 mm 0.00 W/m2
00:49 17.8 °C 6.7 °C 1015.8 hPa Calm     48% 0 mm 0.00 W/m2
00:54 17.8 °C 6.7 °C 1015.8 hPa Calm     48% 0 mm 0.00 W/m2
00:59 17.8 °C 6.1 °C 1015.8 hPa Calm     48% 0 mm 0.00 W/m2
01:04 17.2 °C 6.1 °C 1015.8 hPa Calm     48% 0 mm 0.00 W/m2
01:09 17.2 °C 6.1 °C 1015.8 hPa Calm     48% 0 mm 0.00 W/m2
01:14 17.2 °C 6.7 °C 1015.8 hPa Calm     49% 0 mm 0.00 W/m2
01:19 17.2 °C 6.1 °C 1015.8 hPa Calm     49% 0 mm 0.00 W/m2
01:24 17.2 °C 6.1 °C 1015.8 hPa Calm     49% 0 mm 0.00 W/m2
01:29 17.2 °C 6.1 °C 1015.8 hPa Calm     49% 0 mm 0.00 W/m2
01:34 16.7 °C 6.1 °C 1015.8 hPa Calm     50% 0 mm 0.00 W/m2
01:39 16.7 °C 6.1 °C 1015.8 hPa Calm     50% 0 mm 0.00 W/m2
01:44 16.7 °C 6.1 °C 1015.8 hPa Calm     50% 0 mm 0.00 W/m2
01:49 16.7 °C 6.7 °C 1015.8 hPa Calm     51% 0 mm 0.00 W/m2
01:54 16.7 °C 6.7 °C 1015.8 hPa Calm     51% 0 mm 0.00 W/m2
01:59 16.7 °C 6.1 °C 1015.8 hPa Calm     50% 0 mm 0.00 W/m2
02:04 16.7 °C 6.1 °C 1015.8 hPa Calm     50% 0 mm 0.00 W/m2
02:09 16.7 °C 6.1 °C 1015.8 hPa Calm     50% 0 mm 0.00 W/m2
02:14 16.7 °C 6.1 °C 1015.8 hPa Calm     50% 0 mm 0.00 W/m2
02:19 16.7 °C 6.1 °C 1015.8 hPa Calm     51% 0 mm 0.00 W/m2
02:24 16.7 °C 6.1 °C 1015.8 hPa Calm     51% 0 mm 0.00 W/m2
02:29 16.1 °C 6.1 °C 1015.8 hPa Calm     51% 0 mm 0.00 W/m2
02:34 16.1 °C 6.1 °C 1015.8 hPa Calm     51% 0 mm 0.00 W/m2
02:39 16.1 °C 6.1 °C 1015.8 hPa Calm     51% 0 mm 0.00 W/m2
02:44 16.1 °C 6.1 °C 1015.8 hPa Calm     52% 0 mm 0.00 W/m2
02:49 16.1 °C 6.1 °C 1015.8 hPa Calm     51% 0 mm 0.00 W/m2
02:54 16.1 °C 6.1 °C 1015.8 hPa Calm     51% 0 mm 0.00 W/m2
02:59 16.1 °C 6.1 °C 1015.8 hPa Calm     52% 0 mm 0.00 W/m2
03:04 16.1 °C 6.1 °C 1015.8 hPa Calm     52% 0 mm 0.00 W/m2
03:09 16.1 °C 6.1 °C 1015.8 hPa Calm     52% 0 mm 0.00 W/m2
03:14 16.1 °C 6.1 °C 1015.8 hPa Calm     52% 0 mm 0.00 W/m2
03:19 16.1 °C 6.7 °C 1015.8 hPa Calm     54% 0 mm 0.00 W/m2
03:24 16.1 °C 6.1 °C 1015.8 hPa Calm     53% 0 mm 0.00 W/m2
03:29 16.1 °C 6.7 °C 1015.8 hPa Calm     54% 0 mm 0.00 W/m2
03:34 15.6 °C 6.7 °C 1015.8 hPa Calm     55% 0 mm 0.00 W/m2
03:39 15.6 °C 6.7 °C 1015.8 hPa Calm     54% 0 mm 0.00 W/m2
03:44 15.6 °C 6.7 °C 1015.8 hPa Calm     55% 0 mm 0.00 W/m2
03:49 15.6 °C 6.7 °C 1015.8 hPa Calm     54% 0 mm 0.00 W/m2
03:54 15.6 °C 6.1 °C 1015.8 hPa Calm     54% 0 mm 0.00 W/m2
03:59 15.6 °C 6.1 °C 1015.8 hPa Calm     54% 0 mm 0.00 W/m2
04:04 15.6 °C 6.1 °C 1015.8 hPa Calm     54% 0 mm 0.00 W/m2
04:09 15 °C 6.1 °C 1015.8 hPa Calm     54% 0 mm 0.00 W/m2
04:14 15 °C 6.1 °C 1015.8 hPa Calm     55% 0 mm 0.00 W/m2
04:18 15 °C 6.1 °C 1015.8 hPa Calm     55% 0 mm 0.00 W/m2
04:24 15 °C 6.1 °C 1015.8 hPa Calm     55% 0 mm 0.00 W/m2
04:29 15 °C 5.6 °C 1015.8 hPa Calm     55% 0 mm 0.00 W/m2
04:34 14.4 °C 5.6 °C 1015.8 hPa Calm     54% 0 mm 0.00 W/m2
04:39 14.4 °C 5 °C 1015.8 hPa Calm     52% 0 mm 0.00 W/m2
04:44 14.4 °C 4.4 °C 1015.8 hPa Calm     51% 0 mm 0.00 W/m2
04:49 14.4 °C 4.4 °C 1015.8 hPa Calm     51% 0 mm 0.00 W/m2
04:54 14.4 °C 4.4 °C 1015.8 hPa Calm     52% 0 mm 0.00 W/m2
04:59 14.4 °C 4.4 °C 1015.8 hPa Calm     52% 0 mm 0.00 W/m2
05:04 14.4 °C 5 °C 1015.8 hPa Calm     53% 0 mm 0.00 W/m2
05:09 14.4 °C 5 °C 1015.8 hPa Calm     53% 0 mm 0.00 W/m2
05:14 14.4 °C 5 °C 1015.8 hPa Calm     54% 0 mm 0.00 W/m2
05:19 14.4 °C 5.6 °C 1015.8 hPa Calm     55% 0 mm 0.00 W/m2
05:24 14.4 °C 5.6 °C 1015.8 hPa Calm     56% 0 mm 0.00 W/m2
05:29 14.4 °C 5.6 °C 1015.8 hPa Calm     57% 0 mm 0.00 W/m2
05:34 13.9 °C 6.1 °C 1015.8 hPa Calm     58% 0 mm 0.00 W/m2
05:39 13.9 °C 6.1 °C 1015.8 hPa Calm     58% 0 mm 0.00 W/m2
05:44 13.9 °C 5.6 °C 1015.8 hPa Calm     56% 0 mm 0.00 W/m2
05:49 13.9 °C 5.6 °C 1015.8 hPa Calm     56% 0 mm 0.00 W/m2
05:54 13.9 °C 5.6 °C 1015.8 hPa Calm     56% 0 mm 0.00 W/m2
05:59 13.9 °C 5.6 °C 1015.8 hPa Calm     56% 0 mm 0.00 W/m2
06:04 13.9 °C 5.6 °C 1015.8 hPa Calm     57% 0 mm 0.00 W/m2
06:09 13.9 °C 5.6 °C 1015.8 hPa Calm     57% 0 mm 0.00 W/m2
06:14 13.9 °C 5.6 °C 1015.8 hPa Calm     58% 0 mm 0.00 W/m2
06:19 13.9 °C 6.1 °C 1015.8 hPa Calm     60% 0 mm 0.00 W/m2
06:24 13.9 °C 6.7 °C 1015.8 hPa Calm     61% 0 mm 0.00 W/m2
06:29 13.9 °C 6.7 °C 1015.8 hPa Calm     61% 0 mm 0.00 W/m2
06:34 13.9 °C 6.7 °C 1015.8 hPa Calm     61% 0 mm 0.00 W/m2
06:39 13.9 °C 6.7 °C 1015.8 hPa Calm     62% 0 mm 7.00 W/m2
06:44 13.9 °C 6.7 °C 1015.8 hPa Calm     62% 0 mm 9.00 W/m2
06:49 13.9 °C 6.7 °C 1015.8 hPa Calm     62% 0 mm 12.00 W/m2
06:54 13.9 °C 6.7 °C 1015.8 hPa Calm     62% 0 mm 16.00 W/m2
06:59 13.9 °C 6.7 °C 1015.8 hPa Calm     62% 0 mm 19.00 W/m2
07:04 13.9 °C 7.2 °C 1015.8 hPa Calm     63% 0 mm 23.00 W/m2
07:09 13.9 °C 7.2 °C 1015.8 hPa Calm     63% 0 mm 26.00 W/m2
07:14 13.9 °C 7.2 °C 1015.8 hPa Calm     63% 0 mm 30.00 W/m2
07:19 13.9 °C 7.2 °C 1015.8 hPa Calm     64% 0 mm 33.00 W/m2
07:24 13.9 °C 7.2 °C 1015.8 hPa Calm     64% 0 mm 39.00 W/m2
07:29 13.9 °C 7.2 °C 1015.8 hPa Calm     64% 0 mm 42.00 W/m2
07:34 13.9 °C 7.2 °C 1015.8 hPa Calm     64% 0 mm 44.00 W/m2
07:39 14.4 °C 7.2 °C 1015.8 hPa Calm     64% 0 mm 49.00 W/m2
07:44 14.4 °C 7.8 °C 1015.8 hPa Calm     66% 0 mm 53.00 W/m2
07:49 14.4 °C 8.3 °C 1015.8 hPa Calm     66% 0 mm 56.00 W/m2
07:54 14.4 °C 7.8 °C 1015.8 hPa Calm     64% 0 mm 62.00 W/m2
07:59 14.4 °C 7.8 °C 1015.8 hPa Calm     64% 0 mm 62.00 W/m2
08:04 15 °C 8.3 °C 1015.8 hPa Calm     64% 0 mm 70.00 W/m2
08:09 15 °C 8.3 °C 1015.8 hPa Calm     64% 0 mm 72.00 W/m2
08:14 15 °C 8.3 °C 1015.8 hPa Calm     64% 0 mm 77.00 W/m2
08:19 15 °C 8.3 °C 1015.8 hPa Calm     64% 0 mm 84.00 W/m2
08:24 15.6 °C 8.3 °C 1015.8 hPa Calm     64% 0 mm 90.00 W/m2
08:29 15.6 °C 8.9 °C 1015.8 hPa Calm     64% 0 mm 120.00 W/m2
08:34 15.6 °C 8.9 °C 1015.8 hPa Calm     64% 0 mm 179.00 W/m2
08:39 16.1 °C 9.4 °C 1015.8 hPa Calm     64% 0 mm 202.00 W/m2
08:44 16.1 °C 9.4 °C 1019.2 hPa Calm     64% 0 mm 218.00 W/m2
08:49 16.7 °C 10 °C 1019.2 hPa SSW 3.2 km/h   64% 0 mm 285.00 W/m2
08:54 17.2 °C 10 °C 1019.2 hPa SSW 3.2 km/h 3.2 km/h 64% 0 mm 290.00 W/m2
08:59 17.2 °C 9.4 °C 1019.2 hPa SSW 3.2 km/h 3.2 km/h 60% 0 mm 248.00 W/m2
09:04 17.8 °C 8.9 °C 1019.2 hPa SSW 3.2 km/h 3.2 km/h 59% 0 mm 290.00 W/m2
09:09 17.8 °C 8.9 °C 1019.2 hPa SSW 3.2 km/h   57% 0 mm 322.00 W/m2
09:14 18.3 °C 8.9 °C 1019.2 hPa SSW 3.2 km/h 3.2 km/h 55% 0 mm 330.00 W/m2
09:19 18.3 °C 8.3 °C 1019.2 hPa SSW 3.2 km/h 3.2 km/h 53% 0 mm 357.00 W/m2
09:23 18.9 °C 8.3 °C 1019.2 hPa SSW 3.2 km/h 3.2 km/h 51% 0 mm 359.00 W/m2
09:29 19.4 °C 8.3 °C 1019.2 hPa SSW 6.4 km/h 3.2 km/h 50% 0 mm 394.00 W/m2
09:34 19.4 °C 7.8 °C 1019.2 hPa SSW 6.4 km/h 4.8 km/h 48% 0 mm 427.00 W/m2
09:39 20 °C 8.3 °C 1019.2 hPa Calm   3.2 km/h 48% 0 mm 459.00 W/m2
09:44 20.6 °C 7.8 °C 1019.2 hPa SSW 3.2 km/h   46% 0 mm 452.00 W/m2
09:49 20.6 °C 7.8 °C 1019.2 hPa SSW 6.4 km/h 4.8 km/h 44% 0 mm 461.00 W/m2
09:54 21.1 °C 8.3 °C 1019.2 hPa SW 6.4 km/h 4.8 km/h 44% 0 mm 517.00 W/m2
09:59 21.1 °C 7.8 °C 1019.2 hPa WSW 3.2 km/h 4.8 km/h 42% 0 mm 540.00 W/m2
10:04 21.7 °C 7.2 °C 1019.2 hPa WSW 3.2 km/h 3.2 km/h 40% 0 mm 559.00 W/m2
10:09 22.2 °C 7.2 °C 1019.2 hPa WSW 3.2 km/h 3.2 km/h 39% 0 mm 582.00 W/m2
10:14 22.2 °C 7.8 °C 1019.2 hPa WNW 6.4 km/h 3.2 km/h 40% 0 mm 606.00 W/m2
10:19 22.8 °C 7.8 °C 1019.2 hPa WNW 6.4 km/h 4.8 km/h 39% 0 mm 624.00 W/m2
10:24 23.3 °C 8.3 °C 1019.2 hPa WNW 9.7 km/h 4.8 km/h 39% 0 mm 642.00 W/m2
10:29 23.3 °C 7.8 °C 1019.2 hPa WNW 6.4 km/h 9.7 km/h 37% 0 mm 663.00 W/m2
10:34 23.9 °C 7.8 °C 1019.2 hPa WSW 17.7 km/h 6.4 km/h 36% 0 mm 679.00 W/m2
10:39 24.4 °C 7.8 °C 1019.2 hPa SW 16.1 km/h 16.1 km/h 35% 0 mm 686.00 W/m2
10:44 24.4 °C 7.8 °C 1019.2 hPa WSW 11.3 km/h 11.3 km/h 34% 0 mm 698.00 W/m2
10:49 25 °C 7.2 °C 1019.2 hPa WSW 9.7 km/h 9.7 km/h 33% 0 mm 701.00 W/m2
10:54 25 °C 7.8 °C 1019.2 hPa SW 8 km/h 9.7 km/h 33% 0 mm 719.00 W/m2
10:59 25.6 °C 7.2 °C 1019.2 hPa SSW 9.7 km/h 9.7 km/h 32% 0 mm 712.00 W/m2
11:04 25.6 °C 7.2 °C 1019.2 hPa SSW 3.2 km/h 9.7 km/h 31% 0 mm 721.00 W/m2
11:09 26.1 °C 7.2 °C 1019.2 hPa WSW 11.3 km/h 6.4 km/h 31% 0 mm 744.00 W/m2
11:14 26.1 °C 7.8 °C 1019.2 hPa SSW 3.2 km/h 11.3 km/h 31% 0 mm 766.00 W/m2
11:19 26.1 °C 7.8 °C 1019.2 hPa SSW 14.5 km/h 9.7 km/h 31% 0 mm 775.00 W/m2
11:24 26.7 °C 7.8 °C 1019.2 hPa West 14.5 km/h 14.5 km/h 31% 0 mm 773.00 W/m2
11:29 26.7 °C 8.3 °C 1015.8 hPa SW 11.3 km/h 14.5 km/h 31% 0 mm 782.00 W/m2
11:34 27.2 °C 7.8 °C 1015.8 hPa WSW 11.3 km/h 11.3 km/h 30% 0 mm 803.00 W/m2
11:39 27.2 °C 8.9 °C 1015.8 hPa SSW 14.5 km/h 11.3 km/h 31% 0 mm 803.00 W/m2
11:44 27.8 °C 7.8 °C 1015.8 hPa WSW 17.7 km/h 14.5 km/h 29% 0 mm 826.00 W/m2
11:49 27.8 °C 7.8 °C 1015.8 hPa WSW 14.5 km/h 16.1 km/h 29% 0 mm 844.00 W/m2
11:54 27.8 °C 8.3 °C 1015.8 hPa West 14.5 km/h 14.5 km/h 29% 0 mm 844.00 W/m2
11:59 28.3 °C 7.8 °C 1015.8 hPa WSW 20.9 km/h 14.5 km/h 28% 0 mm 854.00 W/m2
12:04 28.3 °C 8.9 °C 1015.8 hPa NNW 11.3 km/h 20.9 km/h 29% 0 mm 856.00 W/m2
12:09 28.9 °C 8.9 °C 1015.8 hPa SE 29 km/h 27.4 km/h 29% 0 mm 865.00 W/m2
12:14 28.9 °C 7.8 °C 1015.8 hPa WSW 20.9 km/h 16.1 km/h 27% 0 mm 867.00 W/m2
12:19 28.9 °C 7.8 °C 1015.8 hPa SW 17.7 km/h 20.9 km/h 27% 0 mm 868.00 W/m2
12:24 28.9 °C 8.3 °C 1015.8 hPa SSW 16.1 km/h 16.1 km/h 27% 0 mm 875.00 W/m2
12:29 29.4 °C 8.3 °C 1015.8 hPa SW 11.3 km/h 11.3 km/h 27% 0 mm 879.00 W/m2
12:34 29.4 °C 8.9 °C 1015.8 hPa SW 14.5 km/h 9.7 km/h 28% 0 mm 877.00 W/m2
12:39 29.4 °C 8.9 °C 1015.8 hPa SW 17.7 km/h 17.7 km/h 28% 0 mm 884.00 W/m2
12:44 29.4 °C 8.9 °C 1015.8 hPa SW 22.5 km/h 22.5 km/h 27% 0 mm 884.00 W/m2
12:49 30 °C 8.9 °C 1015.8 hPa WSW 11.3 km/h 22.5 km/h 27% 0 mm 886.00 W/m2
12:54 30 °C 8.3 °C 1015.8 hPa WSW 29 km/h 14.5 km/h 26% 0 mm 886.00 W/m2
12:59 30 °C 8.3 °C 1015.8 hPa WSW 25.7 km/h 27.4 km/h 26% 0 mm 884.00 W/m2
13:04 30 °C 8.3 °C 1015.8 hPa SW 14.5 km/h 11.3 km/h 26% 0 mm 888.00 W/m2
13:08 30 °C 8.9 °C 1015.8 hPa WSW 9.7 km/h 14.5 km/h 26% 0 mm 886.00 W/m2
13:14 30.6 °C 8.3 °C 1015.8 hPa WSW 17.7 km/h 14.5 km/h 25% 0 mm 886.00 W/m2
13:19 30.6 °C 8.3 °C 1015.8 hPa WSW 17.7 km/h 16.1 km/h 25% 0 mm 882.00 W/m2
13:24 30.6 °C 8.9 °C 1015.8 hPa SSW 14.5 km/h 16.1 km/h 26% 0 mm 884.00 W/m2
13:29 30.6 °C 8.3 °C 1015.8 hPa SW 20.9 km/h 14.5 km/h 25% 0 mm 875.00 W/m2
13:34 30.6 °C 8.9 °C 1015.8 hPa WSW 14.5 km/h 20.9 km/h 26% 0 mm 874.00 W/m2
13:39 30.6 °C 8.9 °C 1015.8 hPa South 14.5 km/h 14.5 km/h 26% 0 mm 872.00 W/m2
13:44 30.6 °C 8.9 °C 1015.8 hPa WSW 17.7 km/h 9.7 km/h 26% 0 mm 867.00 W/m2
13:49 31.1 °C 8.9 °C 1015.8 hPa West 14.5 km/h 16.1 km/h 26% 0 mm 858.00 W/m2
13:54 31.1 °C 8.9 °C 1015.8 hPa WSW 14.5 km/h 14.5 km/h 26% 0 mm 860.00 W/m2
13:59 31.1 °C 8.9 °C 1015.8 hPa WNW 14.5 km/h 14.5 km/h 25% 0 mm 853.00 W/m2
14:04 31.1 °C 9.4 °C 1015.8 hPa WSW 14.5 km/h 14.5 km/h 26% 0 mm 844.00 W/m2
14:09 31.1 °C 8.9 °C 1015.8 hPa WSW 20.9 km/h 14.5 km/h 25% 0 mm 840.00 W/m2
14:14 31.1 °C 8.9 °C 1015.8 hPa SW 6.4 km/h 20.9 km/h 25% 0 mm 835.00 W/m2
14:19 31.1 °C 8.9 °C 1015.8 hPa WSW 20.9 km/h 16.1 km/h 25% 0 mm 824.00 W/m2
14:24 31.1 °C 9.4 °C 1015.8 hPa WSW 14.5 km/h 20.9 km/h 26% 0 mm 816.00 W/m2
14:29 31.1 °C 9.4 °C 1015.8 hPa SW 20.9 km/h 14.5 km/h 26% 0 mm 810.00 W/m2
14:34 31.1 °C 9.4 °C 1015.8 hPa SW 14.5 km/h 20.9 km/h 26% 0 mm 802.00 W/m2
14:39 31.1 °C 8.9 °C 1015.8 hPa West 19.3 km/h 11.3 km/h 25% 0 mm 789.00 W/m2
14:44 31.1 °C 8.9 °C 1015.8 hPa West 20.9 km/h 20.9 km/h 25% 0 mm 782.00 W/m2
14:49 31.1 °C 8.9 °C 1015.8 hPa West 11.3 km/h 14.5 km/h 25% 0 mm 773.00 W/m2
14:54 31.7 °C 8.3 °C 1015.8 hPa SW 11.3 km/h 11.3 km/h 24% 0 mm 766.00 W/m2
14:59 31.7 °C 8.3 °C 1015.8 hPa WSW 14.5 km/h 14.5 km/h 24% 0 mm 754.00 W/m2
15:04 31.7 °C 8.3 °C 1015.8 hPa SW 17.7 km/h 14.5 km/h 24% 0 mm 744.00 W/m2
15:09 31.7 °C 8.3 °C 1015.8 hPa SSW 14.5 km/h 16.1 km/h 24% 0 mm 733.00 W/m2
15:14 31.7 °C 8.9 °C 1015.8 hPa SW 25.7 km/h 14.5 km/h 24% 0 mm 726.00 W/m2
15:19 32.2 °C 8.3 °C 1015.8 hPa ESE 25.7 km/h 25.7 km/h 23% 0 mm 708.00 W/m2
15:24 32.2 °C 8.3 °C 1015.8 hPa WSW 32.2 km/h 17.7 km/h 23% 0 mm 707.00 W/m2
15:29 31.7 °C 8.9 °C 1015.8 hPa SW 17.7 km/h 32.2 km/h 24% 0 mm 693.00 W/m2
15:34 31.7 °C 8.3 °C 1015.8 hPa WSW 25.7 km/h 19.3 km/h 23% 0 mm 677.00 W/m2
15:39 31.7 °C 8.3 °C 1015.8 hPa SW 25.7 km/h 25.7 km/h 23% 0 mm 656.00 W/m2
15:44 31.7 °C 8.9 °C 1015.8 hPa SW 14.5 km/h 25.7 km/h 24% 0 mm 642.00 W/m2
15:49 31.7 °C 8.3 °C 1015.8 hPa SW 11.3 km/h 14.5 km/h 23% 0 mm 636.00 W/m2
15:54 31.7 °C 8.3 °C 1015.8 hPa SSW 14.5 km/h 12.9 km/h 23% 0 mm 626.00 W/m2
15:59 31.7 °C 9.4 °C 1015.8 hPa South 9.7 km/h 14.5 km/h 25% 0 mm 605.00 W/m2
16:04 31.7 °C 8.9 °C 1015.8 hPa WSW 25.7 km/h 17.7 km/h 24% 0 mm 592.00 W/m2
16:09 31.7 °C 8.9 °C 1015.8 hPa WNW 11.3 km/h 25.7 km/h 24% 0 mm 575.00 W/m2
16:14 31.7 °C 8.9 °C 1015.8 hPa WNW 9.7 km/h 11.3 km/h 24% 0 mm 568.00 W/m2
16:19 31.7 °C 8.3 °C 1015.8 hPa SW 11.3 km/h 11.3 km/h 23% 0 mm 559.00 W/m2
16:24 31.7 °C 8.3 °C 1015.8 hPa WSW 9.7 km/h 11.3 km/h 23% 0 mm 547.00 W/m2
16:29 32.2 °C 8.3 °C 1015.8 hPa SSE 6.4 km/h 9.7 km/h 23% 0 mm 533.00 W/m2
16:34 32.2 °C 8.3 °C 1015.8 hPa SSW 11.3 km/h 8 km/h 23% 0 mm 515.00 W/m2
16:39 32.2 °C 7.8 °C 1015.8 hPa SW 20.9 km/h 11.3 km/h 22% 0 mm 501.00 W/m2
16:44 31.7 °C 7.8 °C 1015.8 hPa West 11.3 km/h 20.9 km/h 22% 0 mm 480.00 W/m2
16:49 32.2 °C 7.8 °C 1015.8 hPa SW 11.3 km/h 11.3 km/h 22% 0 mm 464.00 W/m2
16:54 32.2 °C 7.8 °C 1015.8 hPa WSW 9.7 km/h 6.4 km/h 22% 0 mm 457.00 W/m2
16:59 32.2 °C 7.8 °C 1015.8 hPa SW 11.3 km/h 9.7 km/h 22% 0 mm 450.00 W/m2
17:04 32.2 °C 7.2 °C 1015.8 hPa SSE 14.5 km/h 11.3 km/h 21% 0 mm 424.00 W/m2
17:09 32.2 °C 8.3 °C 1015.8 hPa WSW 25.7 km/h 14.5 km/h 23% 0 mm 413.00 W/m2
17:14 32.2 °C 7.8 °C 1015.8 hPa WSW 25.7 km/h 25.7 km/h 22% 0 mm 396.00 W/m2
17:19 31.7 °C 7.2 °C 1015.8 hPa WNW 17.7 km/h 16.1 km/h 22% 0 mm 381.00 W/m2
17:24 31.7 °C 7.2 °C 1015.8 hPa SW 11.3 km/h 16.1 km/h 22% 0 mm 364.00 W/m2
17:29 31.7 °C 8.3 °C 1015.8 hPa SW 9.7 km/h 11.3 km/h 24% 0 mm 341.00 W/m2
17:34 31.1 °C 7.8 °C 1015.8 hPa SSW 6.4 km/h 9.7 km/h 23% 0 mm 79.00 W/m2
17:39 31.1 °C 6.7 °C 1015.8 hPa SW 11.3 km/h 4.8 km/h 22% 0 mm 72.00 W/m2
17:44 31.1 °C 6.7 °C 1015.8 hPa South 6.4 km/h 11.3 km/h 22% 0 mm 67.00 W/m2
17:49 30.6 °C 6.7 °C 1015.8 hPa SSW 8 km/h 4.8 km/h 22% 0 mm 69.00 W/m2
17:54 30.6 °C 6.1 °C 1015.8 hPa SW 11.3 km/h 9.7 km/h 22% 0 mm 84.00 W/m2
17:59 30 °C 6.7 °C 1015.8 hPa SW 6.4 km/h 11.3 km/h 23% 0 mm 69.00 W/m2
18:04 30 °C 7.8 °C 1015.8 hPa SW 14.5 km/h 4.8 km/h 25% 0 mm 54.00 W/m2
18:09 29.4 °C 7.2 °C 1015.8 hPa SSW 14.5 km/h 14.5 km/h 25% 0 mm 53.00 W/m2
18:14 29.4 °C 7.2 °C 1015.8 hPa WSW 11.3 km/h 4.8 km/h 25% 0 mm 46.00 W/m2
18:19 28.9 °C 6.1 °C 1015.8 hPa SW 11.3 km/h 11.3 km/h 24% 0 mm 62.00 W/m2
18:24 28.9 °C 6.1 °C 1015.8 hPa SW 9.7 km/h 11.3 km/h 24% 0 mm 35.00 W/m2
18:29 28.9 °C 7.2 °C 1015.8 hPa WNW 9.7 km/h 4.8 km/h 26% 0 mm 32.00 W/m2
18:34 28.3 °C 6.1 °C 1015.8 hPa West 6.4 km/h 9.7 km/h 24% 0 mm 30.00 W/m2
18:39 28.3 °C 6.1 °C 1015.8 hPa SW 11.3 km/h 4.8 km/h 24% 0 mm 28.00 W/m2
18:44 28.3 °C 5.6 °C 1015.8 hPa SW 11.3 km/h 11.3 km/h 24% 0 mm 26.00 W/m2
18:49 28.3 °C 6.1 °C 1015.8 hPa SW 6.4 km/h 3.2 km/h 25% 0 mm 25.00 W/m2
18:54 27.8 °C 5.6 °C 1015.8 hPa SW 3.2 km/h 4.8 km/h 24% 0 mm 21.00 W/m2
18:59 27.8 °C 7.2 °C 1015.8 hPa SW 3.2 km/h 3.2 km/h 27% 0 mm 19.00 W/m2
19:04 27.8 °C 6.7 °C 1015.8 hPa SW 3.2 km/h 3.2 km/h 26% 0 mm 16.00 W/m2
19:09 27.2 °C 6.7 °C 1015.8 hPa Calm   3.2 km/h 27% 0 mm 14.00 W/m2
19:14 27.2 °C 7.2 °C 1015.8 hPa Calm     28% 0 mm 14.00 W/m2
19:19 27.2 °C 6.1 °C 1015.8 hPa Calm     27% 0 mm 12.00 W/m2
19:24 27.2 °C 8.3 °C 1015.8 hPa Calm     31% 0 mm 11.00 W/m2
19:29 26.7 °C 6.1 °C 1015.8 hPa Calm     27% 0 mm 9.00 W/m2
19:34 26.7 °C 5.6 °C 1015.8 hPa Calm     26% 0 mm 7.00 W/m2
19:39 26.1 °C 5.6 °C 1015.8 hPa Calm     27% 0 mm 5.00 W/m2
19:44 26.1 °C 5.6 °C 1015.8 hPa Calm     27% 0 mm 0.00 W/m2
19:49 25.6 °C 5 °C 1015.8 hPa Calm     27% 0 mm 0.00 W/m2
19:54 25.6 °C 5.6 °C 1015.8 hPa Calm     28% 0 mm 0.00 W/m2
19:59 25 °C 5 °C 1015.8 hPa Calm     28% 0 mm 0.00 W/m2
20:04 25 °C 5 °C 1015.8 hPa Calm     28% 0 mm 0.00 W/m2
20:09 24.4 °C 5 °C 1015.8 hPa Calm     28% 0 mm 0.00 W/m2
20:14 24.4 °C 4.4 °C 1015.8 hPa Calm     28% 0 mm 0.00 W/m2
20:19 23.9 °C 5 °C 1015.8 hPa Calm     30% 0 mm 0.00 W/m2
20:24 23.9 °C 5.6 °C 1015.8 hPa Calm     31% 0 mm 0.00 W/m2
20:29 23.3 °C 5 °C 1015.8 hPa Calm     30% 0 mm 0.00 W/m2
20:34 23.3 °C 5.6 °C 1015.8 hPa Calm     32% 0 mm 0.00 W/m2
20:39 22.8 °C 5.6 °C 1015.8 hPa Calm     32% 0 mm 0.00 W/m2
20:44 22.8 °C 5 °C 1015.8 hPa Calm     32% 0 mm 0.00 W/m2
20:49 22.2 °C 5 °C 1015.8 hPa Calm     32% 0 mm 0.00 W/m2
20:54 22.2 °C 5 °C 1015.8 hPa Calm     33% 0 mm 0.00 W/m2
20:59 22.2 °C 5.6 °C 1015.8 hPa Calm     34% 0 mm 0.00 W/m2
21:04 21.7 °C 5 °C 1015.8 hPa Calm     33% 0 mm 0.00 W/m2
21:09 21.7 °C 4.4 °C 1015.8 hPa Calm     33% 0 mm 0.00 W/m2
21:14 21.7 °C 5 °C 1015.8 hPa Calm     34% 0 mm 0.00 W/m2
21:19 21.1 °C 5 °C 1015.8 hPa Calm     34% 0 mm 0.00 W/m2
21:24 21.1 °C 5 °C 1015.8 hPa Calm     35% 0 mm 0.00 W/m2
21:29 21.1 °C 5 °C 1015.8 hPa Calm     35% 0 mm 0.00 W/m2
21:34 20.6 °C 5 °C 1015.8 hPa Calm     35% 0 mm 0.00 W/m2
21:39 20.6 °C 5 °C 1015.8 hPa Calm     36% 0 mm 0.00 W/m2
21:44 20.6 °C 5 °C 1015.8 hPa Calm     36% 0 mm 0.00 W/m2
21:49 20.6 °C 5 °C 1015.8 hPa Calm     37% 0 mm 0.00 W/m2
21:54 20.6 °C 5 °C 1015.8 hPa Calm     37% 0 mm 0.00 W/m2
21:59 20 °C 5 °C 1015.8 hPa Calm     37% 0 mm 0.00 W/m2
22:04 20 °C 5 °C 1015.8 hPa Calm     38% 0 mm 0.00 W/m2
22:08 20 °C 5 °C 1015.8 hPa Calm     38% 0 mm 0.00 W/m2
El Dorado Weather
Compliments of Weather Underground - 2 mb